Regional Weather Roundup
Issued by NWS

Home | Current Version | Previous Version | Text Only | Print | Product List | Glossary On
Versions: 1 2 3 4 5 6 7 8 9 10 11 12 13 14 15 16 17 18 19 20 21 22 23 24 25 26 27 28 29 30 31 32 33 34 35 36 37 38 39 40 41 42 43 44 45 46 47 48 49 50
000
ASUS43 KLOT 031209
RWRIL

ILLINOIS REGIONAL WEATHER ROUNDUP
NATIONAL WEATHER SERVICE CHICAGO/ROMEOVILLE IL
700 AM CDT TUE AUG 03 2021

NOTE: "FAIR" INDICATES FEW OR NO CLOUDS BELOW 12,000 FEET WITH NO
SIGNIFICANT WEATHER AND/OR OBSTRUCTIONS TO VISIBILITY.

* THESE STATIONS ARE NOT UNDER NWS QUALITY CONTROL. THEY ALSO MAY NOT
  REPORT WEATHER SUCH AS PRECIPITATION OR FOG.

ILZ001-002-007-009-015-016-024-031300-
NORTHWEST ILLINOIS

CITY           SKY/WX    TMP DP  RH WIND       PRES   REMARKS
MOLINE         CLEAR     58  55  90 CALM      30.12S
6HR MIN TEMP:  56; 6HR MAX TEMP:  60;

STERLING*      SUNNY     57  57 100 SE3       30.13S FOG
$$

ILZ003-004-008-010-011-017-018-031300-
NORTH CENTRAL ILLINOIS

CITY           SKY/WX    TMP DP  RH WIND       PRES   REMARKS
ROCKFORD       SUNNY     58  55  90 CALM      30.14F
6HR MIN TEMP:  54; 6HR MAX TEMP:  60;

FREEPORT*      SUNNY     56  53  90 CALM      30.15S
ROCHELLE*      SUNNY     57  57 100 CALM      30.14S FOG
DE KALB*       SUNNY     58  57  95 CALM      30.14S
PERU*          SUNNY     59  55  87 CALM      30.12S
$$

ILZ005-006-012>014-019>023-031300-
NORTHEAST ILLINOIS

CITY           SKY/WX    TMP DP  RH WIND       PRES   REMARKS
CHICAGO-OHARE  MOSUNNY   64  56  75 W5        30.12R
6HR MIN TEMP:  62; 6HR MAX TEMP:  64;

CHICAGO-MIDWAY PTSUNNY   66  54  65 CALM      30.12R
6HR MIN TEMP:  63; 6HR MAX TEMP:  69;

AURORA         SUNNY     56  54  93 CALM      30.12S
6HR MIN TEMP:  53; 6HR MAX TEMP:  58;

JOLIET*        MOSUNNY   60  59  94 CALM      30.13R
WAUKEGAN       SUNNY     62  55  77 SW3       30.11S
6HR MIN TEMP:  56; 6HR MAX TEMP:  62;

DUPAGE AIRPORT SUNNY     62  56  80 CALM      30.12S
6HR MIN TEMP:  59; 6HR MAX TEMP:  63;

KANKAKEE*      CLOUDY    61  59  94 CALM      30.13S
WHEELING       SUNNY     63  58  83 CALM      30.13R
6HR MIN TEMP:  58; 6HR MAX TEMP:  65;

MORRIS*        SUNNY     58  58  99 CALM      30.11S
ROMEOVILLE*    MOSUNNY   62  58  87 CALM      30.13R
LANSING*       CLOUDY    61  58  90 CALM      30.13R
NORTHERLY ISL*   N/A     68  54  60 W3          N/A
$$

LMZ740>746-031300-
SOUTHERN LAKE MICHIGAN

STATION/POSITION SKY/WX   TEMP    WIND        PRES    VSBY  WAVE
                          AIR SEA DIR/SP/G                  HT/PER
                          (F)     (DEG/KT/KT) (MB)    (MI)  (FT/S)
SOUTHERN BUOY              70 71  250/  8/ 10 1019.8R         0
WINTHROP HARBOR            66 71                N/A           1
WAUKEGAN HARBOR            67 71                N/A           0
WILMETTE HARBOR               72  250/  6/  8 1019.4R         1
HARRISON CRIB              69     290/  5/  6   N/A
NORTHERLY ISL              69     240/  2/  5   N/A
CALUMET HARBOR                     CALM  /  1 1019.3R
BURNS HARBOR               65     170/  3/  4 1020.3R
MICHIGAN CITY              64     150/  6/  6 1020.3R
MICHIGAN CITY 6N           69     170/  4/  6   N/A           1
ST. JOSEPH                 67 73   CALM  /  2 1020.0R         1
$$

ILZ025>027-034>036-040-047-049-050-058-095>099-031300-
WEST-CENTRAL ILLINOIS

CITY           SKY/WX    TMP DP  RH WIND       PRES   REMARKS
QUINCY         CLEAR     61  58  90 NE3       30.12R
GALESBURG*     CLEAR     55  55 100 CALM      30.14S
JACKSONVILLE*  CLEAR     57  57 100 CALM      30.12S
PITTSFIELD*    CLEAR     59  59 100 CALM      30.13S
$$

ILZ028>032-037-038-041>044-048-051>054-059>061-031300-
CENTRAL ILLINOIS

CITY           SKY/WX    TMP DP  RH WIND       PRES   REMARKS
PONTIAC        MOSUNNY   60  59  98 CALM      30.13S FOG
BLOOMINGTON    MOSUNNY   60  58  92 E3        30.14R
DECATUR        SUNNY     57  57 100 NE3       30.12R
PEORIA         SUNNY     61  58  90 CALM      30.12S
6HR MIN TEMP:  59; 6HR MAX TEMP:  63;

LACON*         MOSUNNY   57  57  98 CALM      30.12S FOG
LINCOLN*       MOSUNNY   59  57  92 CALM      30.13R
SPRINGFIELD    SUNNY     58  56  93 CALM      30.12S
6HR MIN TEMP:  54; 6HR MAX TEMP:  59; 6HR PCP: TRACE;

TAYLORVILLE    SUNNY     59  59 100 CALM      30.12S FOG
$$

ILZ033-039-045-046-055>057-062-063-031300-
EAST-CENTRAL ILLINOIS

CITY           SKY/WX    TMP DP  RH WIND       PRES   REMARKS
CHAMPAIGN      SUNNY     61  56  83 E6        30.12S
RANTOUL*       SUNNY     60  55  85 CALM      30.13R
MATTOON        SUNNY     59  54  83 N3        30.10S
PARIS*         SUNNY     57  57 100 CALM      30.12S
$$

ILZ079-100>102-031300-
SOUTHWEST ILLINOIS

CITY           SKY/WX    TMP DP  RH WIND       PRES   REMARKS
ALTON          CLEAR     63  59  88 CALM      30.11S
BELLEVILLE     CLEAR     62  62 100 N3        30.09R
CAHOKIA*       CLEAR     61  61 100 CALM      30.10R
SPARTA*        CLEAR     61  60  96 CALM      30.11R
$$

ILZ064>066-069>071-074>076-080>082-084>086-088>090-092>094-031300-
SOUTH-CENTRAL ILLINOIS

CITY           SKY/WX    TMP DP  RH WIND       PRES   REMARKS
CARBONDALE     CLEAR     59  59 100 CALM      30.08S
6HR MIN TEMP:  56; 6HR MAX TEMP:  59;

CAIRO*           N/A     60  59  95 CALM      30.07S
EFFINGHAM*     SUNNY     58  57  95 CALM      30.12R
MARION         SUNNY     61  57  88 CALM      30.08F
MT. VERNON     SUNNY     61  61 100 NE3       30.10R
CENTRALIA*     SUNNY     59  59 100 CALM      30.10S FOG
SALEM*         SUNNY     61  61  99 CALM      30.10S
METROPOLIS*    SUNNY     61  61 100 N3        30.07S
$$

ILZ067-068-072-073-078-083-087-091-031300-
SOUTHEAST ILLINOIS

CITY           SKY/WX    TMP DP  RH WIND       PRES   REMARKS
LAWRENCEVILLE  MOSUNNY   63  59  87 CALM      30.09S
FLORA*         SUNNY     61  59  94 N5        30.10S
FAIRFIELD*     SUNNY     61  59  93 N3        30.08S
HARRISBURG*    SUNNY     62  58  86 CALM      30.08S
ROBINSON*      SUNNY     56  56 100 CALM      30.11S
CARMI*         SUNNY     61  59  94 MISG      30.07S
$$

ABBREVIATIONS USED IN REMARKS
   TC - TEMPERATURE IN CELSIUS
  WCI - WIND CHILL INDEX
   HX - HEAT INDEX
  VSB - VISIBILITY
$$




USA.gov is the U.S. government's official web portal to all federal, state and local government web resources and services.